This is the latest recevied weather packets stored in our database for station/object OK3FM-14. If no packets are shown the sender has not sent any weather packets the latest 10 day(s).
| Time | Temp. | Humidity | Pressure | Rain* | Wind** | Luminosity | Snow |
|---|---|---|---|---|---|---|---|
| 1787830644 | 24.44° C | 47% | 1019.5 hPa | - | - | - | - |
| 1787830044 | 24.44° C | 47% | 1019.6 hPa | - | - | - | - |
| 1787829445 | 23.89° C | 48% | 1019.7 hPa | - | - | - | - |
| 1787828847 | 23.89° C | 48% | 1019.7 hPa | - | - | - | - |
| 1787828244 | 23.33° C | 49% | 1019.7 hPa | - | - | - | - |
| 1787827644 | 23.33° C | 50% | 1019.8 hPa | - | - | - | - |
| 1787827044 | 23.33° C | 50% | 1019.9 hPa | - | - | - | - |
| 1787826444 | 22.78° C | 51% | 1019.9 hPa | - | - | - | - |
| 1787825849 | 22.78° C | 52% | 1020 hPa | - | - | - | - |
| 1787825243 | 22.22° C | 53% | 1020.1 hPa | - | - | - | - |
| 1787824643 | 21.67° C | 53% | 1020.3 hPa | - | - | - | - |
| 1787824043 | 21.67° C | 53% | 1020.4 hPa | - | - | - | - |
| 1787823443 | 21.11° C | 55% | 1020.4 hPa | - | - | - | - |
| 1787822843 | 21.67° C | 55% | 1020.6 hPa | - | - | - | - |
| 1787822243 | 21.11° C | 55% | 1020.5 hPa | - | - | - | - |
| 1787821643 | 20.56° C | 56% | 1020.5 hPa | - | - | - | - |
| 1787821043 | 20.56° C | 58% | 1020.4 hPa | - | - | - | - |
| 1787820444 | 21.11° C | 54% | 1020.4 hPa | - | - | - | - |
| 1787819843 | 21.67° C | 54% | 1020.5 hPa | - | - | - | - |
| 1787819243 | 21.11° C | 54% | 1020.5 hPa | - | - | - | - |
| 1787818643 | 20.56° C | 55% | 1020.5 hPa | - | - | - | - |
| 1787818046 | 21.11° C | 55% | 1020.5 hPa | - | - | - | - |
| 1787817443 | 20.56° C | 56% | 1020.7 hPa | - | - | - | - |
| 1787816843 | 19.44° C | 59% | 1020.7 hPa | - | - | - | - |
| 1787816243 | 20.56° C | 59% | 1020.8 hPa | - | - | - | - |
* Rain since midnight (hover to see other rain measurements)
** Current wind speed in m/s (hover to see current wind gust speed)